Regional Weather Roundup
Issued by NWS

Home | Current Version | Previous Version | Graphics & Text | Print | Product List | Glossary Off
Versions: 1 2 3 4 5 6 7 8 9 10 11 12 13 14 15 16 17 18 19 20 21 22 23 24 25 26 27 28 29 30 31 32 33 34 35 36 37 38 39 40 41 42 43 44 45 46 47 48 49 50

000
ASUS43 KTOP 271108
RWRKS

WEATHER ROUNDUP FOR KANSAS
NATIONAL WEATHER SERVICE GOODLAND KS
600 AM CDT FRI MAY 27 2016

NOTE:  "FAIR" INDICATES FEW OR NO CLOUDS BELOW 12,000 FEET WITH NO
SIGNIFICANT WEATHER AND/OR OBSTRUCTIONS TO VISIBILITY.

KSZ001>006-013>018-027>032-041>047-271200-
NORTHWEST KANSAS

CITY           SKY/WX    TMP DP  RH WIND       PRES   REMARKS
GOODLAND       CLOUDY    51  49  92 E3        29.70R
HAYS           CLOUDY    27 N/A N/A SE8       29.65F
HILL CITY      CLOUDY    57  55  93 SE8       29.68S
RUSSELL        PTCLDY    56  55  97 SE12      29.64F
$$

KSZ061>065-074>080-084>089-271200-
SOUTHWEST KANSAS

CITY           SKY/WX    TMP DP  RH WIND       PRES   REMARKS
DODGE CITY     CLOUDY    59  57  93 SE13      29.66R
ELKHART          N/A     47  40  77 NW9         N/A
GARDEN CITY    CLOUDY    51  48  89 W8        29.67S
GREAT BEND     CLOUDY    59  52  77 SE14      29.66S
LIBERAL        CLEAR     48  37  66 W12       29.71R
PRATT          CLOUDY    56  55  95 SE9       29.67S
$$

KSZ066>073-081>083-090>101-271200-
SOUTHEAST KANSAS

CITY           SKY/WX    TMP DP  RH WIND       PRES   REMARKS
CHANUTE        CLOUDY    59  57  93 SE8       29.74R
COFFEYVILLE    CLOUDY    62  59  90 E9        29.75F
HUTCHINSON     CLOUDY    59  57  93 E6        29.67F
MEDICINE LODGE   N/A     61  56  83 SE15G22   29.69R
NEWTON         CLOUDY    57  54  88 SE10      29.70F
PARSONS        CLOUDY    61  59  93 VRB3      29.76R
WICHITA INTL   CLOUDY    60  57  89 E12       29.70R
WICHITA JABRA  CLOUDY    58  58 100 SE8       29.69S
WICHITA MCCONL CLOUDY    59  57  94 SE12      29.70R
WINFIELD       CLOUDY    61  58  90 E12G20    29.73R
$$

KSZ007>012-019>026-033>040-048>060-102>105-271200-
NORTHEAST KANSAS

CITY           SKY/WX    TMP DP  RH WIND       PRES   REMARKS
CONCORDIA      CLOUDY    55  54  96 N3        29.66R
EMPORIA        CLOUDY    58  56  93 S6        29.70F
LAWRENCE       PTCLDY    59  58  96 E5        29.70S
MANHATTAN      CLOUDY    61  55  81 E6        29.65F
MARYSVILLE     CLOUDY    61  57  88 SE9       29.63F
OLATHE IND     CLOUDY    59  58  96 NE5       29.71S
OLATHE EXE     CLOUDY    60  59  96 N5        29.71R
SALINA         PTCLDY    59  57  93 SW6       29.67R
TOPEKA BILLARD PTCLDY    60  58  92 E8        29.66F
TOPEKA FORBES  PTCLDY    60  58  92 E7        29.66F
$$



USA.gov is the U.S. government's official web portal to all federal, state and local government web resources and services.